Back to catalog

DELTA 1 DEB

AliveLEO
NORAD 3127·DEBRIS·🇺🇸 United States

Launched Jan 11, 1968 from Vandenberg Space Force Base

Loading…

Next Passes (next 24 hours)

TLE

FreshSource: Space-Track

Epoch: Sep 14, 2026, 05:56 UTC

1 03127U 68002D   26257.24769367 -.00000066  00000-0  19608-4 0  9996
2 03127 105.3355  78.0704 0321070 155.1572  21.5076 12.84897535750401

Track DELTA 1 DEB in real time with AllMySat

Download on the App Store